Find Starlink 37144

NORAD ID: 68556 Int'l Des: 2026-070 Owner: SPXS Country: US Constellation: starlink operational
LEOCIRCULAR

Live Position

Loading 3D Globe...

About Starlink 37144

Description loading...

Upcoming Passes

Passes for default location (London). Set your location on the main map for personalized predictions.

Altitude History

Loading altitude history...

Two-Line Element Set

1 68556U 26070Q 26111.00002315 -.00004714 00000-0 -20367-4 0 9997
2 68556 53.1580 172.2105 0000880 117.9332 7.8390 15.80862336 4186
Epoch: Apr 21, 2026 • Age: 43 hours

Current Status

Altitude 329.9 km
Velocity 7.72 km/s
Sub-Earth Point 34.42°N, 176.06°W
Launch Date Apr 2, 2026
Age 20 days
Type internet

Technical Details

Classification Payload
Mass 575.00 kg
Dry Mass 530.00 kg
Total Mass 575.00 kg
Length 0.30 m
Diameter 4.10 m
Span 29.00 m
Shape Box + pan
Manufacturer SPXS
Bus Type Starlink V2MO
Phase Status In Orbit
Owner/State SPXS/US

Most Searched